Total_Precipitation_Accumulation
2.12 2.56 2.85 3.37 3.96 4.40 4.83 5.04 5.12 5.01 4.86 4.52 4.22 3.97 3.72 3.51 3.24 3.04 2.96 2.91 2.83 3.04 3.51 3.27 3.56 3.49 3.54 3.60 3.64 3.81 3.73 3.45 3.63 3.76 3.33 2.68 2.20 2.16 1.93 1.89 1.97 2.03 2.08
2.05 2.56 2.88 3.09 3.51 4.03 4.51 4.84 5.04 4.93 4.55 4.22 4.08 4.00 3.96 3.56 3.29 3.26 3.42 3.23 3.22 3.25 3.29 3.54 3.50 3.58 3.74 3.71 3.69 3.83 3.60 3.24 3.53 3.94 4.03 3.28 2.83 2.30 1.72 1.85 2.01 2.23 2.37
2.33 2.61 2.82 2.95 3.19 3.59 3.90 4.01 4.21 4.19 4.03 4.08 4.12 4.10 4.13 3.73 3.67 3.69 3.71 3.48 3.48 3.50 3.51 3.50 3.46 3.51 3.31 3.42 3.51 3.52 3.54 3.47 3.39 3.71 4.09 3.67 3.20 2.73 2.04 1.88 1.94 2.25 2.56
2.03 2.22 2.50 2.77 2.94 3.18 3.50 3.71 3.78 3.75 3.68 3.81 3.88 3.79 3.61 3.50 3.67 3.95 3.90 3.63 3.42 3.31 3.14 3.09 3.27 3.31 3.08 3.19 2.85 3.04 3.24 3.24 3.09 3.38 3.45 3.48 3.49 3.39 2.69 2.19 1.98 2.12 2.34
1.76 1.88 2.08 2.40 2.52 2.84 3.12 3.32 3.59 3.68 3.63 3.72 3.72 3.76 3.59 3.58 3.64 3.66 3.72 3.52 3.34 3.03 2.71 2.75 3.00 2.98 2.90 2.82 2.73 2.94 2.79 2.71 2.79 3.03 3.23 3.31 3.42 3.30 3.10 2.63 2.57 2.51 2.36
1.54 1.76 1.94 2.23 2.39 2.51 2.65 2.76 2.98 3.25 3.43 3.48 3.45 3.51 3.47 3.46 3.42 3.42 3.33 3.11 2.96 2.77 2.47 2.37 2.60 2.75 2.81 2.79 2.75 2.84 2.73 2.76 2.87 2.87 2.94 3.20 3.24 3.22 3.34 2.85 2.67 2.70 2.41
1.28 1.51 1.67 1.84 2.05 2.16 2.27 2.42 2.71 3.06 3.14 3.10 3.06 3.18 3.27 3.28 3.22 3.21 3.07 2.85 2.63 2.41 2.36 2.39 2.55 2.60 2.68 2.56 2.62 2.70 2.71 2.87 2.93 2.85 2.79 2.91 2.95 3.05 3.34 3.28 2.91 2.76 2.56
1.05 1.21 1.48 1.79 1.94 1.92 1.99 2.14 2.45 2.72 2.76 2.70 2.84 3.12 3.19 3.23 3.16 3.20 2.88 2.63 2.42 2.38 2.49 2.50 2.38 2.34 2.43 2.31 2.61 2.54 2.58 2.82 2.90 2.61 2.90 2.93 2.91 3.19 3.44 3.54 3.62 3.27 2.93
1.04 1.14 1.24 1.45 1.57 1.63 1.70 1.85 2.28 2.57 2.66 2.74 2.87 3.01 3.13 3.10 3.06 2.97 2.70 2.44 2.46 2.42 2.58 2.57 2.49 2.38 2.44 2.56 2.84 2.75 2.67 2.90 2.89 2.90 3.13 3.07 2.99 3.13 3.27 3.48 3.73 3.85 3.43
0.87 0.95 1.01 1.13 1.24 1.41 1.68 1.87 2.05 2.37 2.48 2.58 2.75 2.78 3.02 2.92 2.77 2.74 2.52 2.29 2.20 2.31 2.55 2.71 2.60 2.46 2.47 2.64 2.82 2.78 2.93 3.12 3.16 3.25 3.34 3.30 3.11 3.20 3.24 3.29 3.53 3.87 3.79
0.78 0.83 0.96 1.10 1.20 1.35 1.57 1.71 1.76 1.99 2.18 2.32 2.52 2.51 2.52 2.60 2.70 2.55 2.28 2.22 2.26 2.39 2.46 2.57 2.55 2.46 2.48 2.61 2.68 2.64 2.97 3.13 3.15 3.14 3.15 3.13 3.29 3.27 3.15 3.26 3.44 3.72 3.81
0.84 0.89 1.06 1.19 1.27 1.42 1.48 1.53 1.60 1.81 2.02 2.22 2.44 2.51 2.51 2.57 2.62 2.48 2.29 2.29 2.37 2.39 2.34 2.40 2.39 2.26 2.29 2.51 2.53 2.58 2.90 3.06 2.93 2.95 2.99 2.75 2.85 2.95 2.81 2.96 3.03 3.18 3.45
0.94 1.00 1.10 1.16 1.15 1.26 1.41 1.45 1.47 1.68 1.91 2.15 2.46 2.63 2.69 2.67 2.60 2.41 2.21 2.12 2.08 2.12 2.13 2.14 2.16 2.21 2.37 2.47 2.46 2.49 2.49 2.52 2.60 2.83 2.95 2.74 2.73 2.64 2.66 2.71 2.69 2.76 2.87
0.96 1.04 1.05 1.18 1.17 1.20 1.35 1.38 1.44 1.55 1.83 2.08 2.29 2.45 2.35 2.29 2.31 2.18 1.99 1.90 1.90 1.93 2.00 2.08 2.17 2.23 2.30 2.35 2.44 2.50 2.41 2.38 2.43 2.58 2.67 2.64 2.59 2.51 2.63 2.56 2.59 2.66 2.83
0.86 0.89 0.90 0.97 1.02 1.16 1.31 1.25 1.29 1.37 1.54 1.74 1.85 2.02 2.02 1.98 1.97 2.00 2.02 2.03 2.07 2.00 2.08 2.15 2.16 2.14 2.11 2.04 2.14 2.21 2.25 2.40 2.34 2.24 2.22 2.21 2.26 2.25 2.31 2.15 2.36 2.63 2.79
0.61 0.58 0.77 0.87 0.84 0.86 0.98 0.96 1.02 1.18 1.36 1.46 1.59 1.85 1.99 2.02 2.01 2.07 2.21 2.25 2.19 2.14 2.15 2.09 2.12 2.09 1.79 1.99 2.06 2.07 2.17 2.30 2.31 2.17 2.03 1.92 1.90 1.84 1.88 1.86 1.97 2.27 2.49
0.61 0.57 0.65 0.81 0.83 0.83 0.84 0.96 1.10 1.23 1.34 1.49 1.64 1.86 2.00 2.10 2.17 2.18 2.30 2.24 2.23 2.28 2.19 2.10 2.09 2.10 2.17 2.25 2.06 1.91 1.87 1.98 2.03 1.99 1.96 1.70 1.60 1.81 1.78 1.84 1.81 1.83 2.00
0.69 0.67 0.65 0.66 0.73 0.81 0.86 1.00 1.28 1.53 1.59 1.74 1.93 2.05 2.20 2.17 2.15 2.16 2.21 2.31 2.41 2.45 2.42 2.33 2.24 2.22 2.19 2.18 1.96 1.95 1.84 1.84 1.86 1.88 1.91 1.89 1.81 1.87 2.01 1.98 1.89 1.76 1.74
0.65 0.72 0.76 0.78 0.87 0.93 0.96 1.12 1.32 1.64 1.84 1.89 2.00 2.16 2.27 2.30 2.31 2.31 2.30 2.43 2.55 2.52 2.46 2.39 2.41 2.36 2.36 2.40 2.18 2.19 2.01 2.01 2.02 2.05 2.06 2.04 1.93 2.09 2.03 1.93 1.91 1.86 1.85
0.75 0.76 0.80 0.93 1.14 1.21 1.24 1.36 1.47 1.60 1.79 1.88 2.01 2.18 2.41 2.46 2.47 2.62 2.72 2.70 2.67 2.55 2.56 2.56 2.52 2.51 2.53 2.75 2.56 2.40 2.21 2.20 2.20 2.30 2.30 2.35 2.18 2.16 2.09 1.94 1.95 1.95 1.98
0.87 0.85 0.88 1.06 1.32 1.46 1.51 1.62 1.75 1.85 1.85 1.91 2.06 2.25 2.43 2.53 2.59 2.78 2.87 2.87 2.82 2.82 2.77 2.68 2.70 2.69 2.66 2.83 2.58 2.38 2.22 2.27 2.43 2.44 2.37 2.41 2.43 2.20 2.21 2.15 2.04 2.04 2.06
0.99 1.02 1.07 1.25 1.50 1.70 1.67 1.76 1.85 1.86 1.89 1.87 2.01 2.16 2.32 2.33 2.40 2.70 2.80 2.92 2.97 2.92 2.83 2.80 2.64 2.64 2.60 2.50 2.35 2.25 2.22 2.32 2.47 2.56 2.51 2.45 2.43 2.18 2.10 1.96 1.92 1.98 1.88
1.02 1.09 1.15 1.36 1.63 1.83 1.86 1.94 1.87 1.95 1.99 2.01 2.12 2.25 2.33 2.38 2.48 2.59 2.64 2.74 2.81 2.77 2.65 2.68 2.62 2.55 2.54 2.51 2.25 2.03 2.01 2.08 2.11 2.27 2.45 2.38 2.27 2.06 1.85 1.80 1.76 1.68 1.57
1.00 1.08 1.20 1.30 1.42 1.62 1.84 1.97 2.01 2.05 2.06 2.11 2.17 2.27 2.37 2.35 2.42 2.55 2.66 2.76 2.83 2.92 2.83 2.69 2.56 2.52 2.48 2.36 2.19 1.98 1.88 2.01 2.12 2.22 2.30 2.19 2.09 1.89 1.73 1.64 1.56 1.51 1.59
1.02 1.08 1.20 1.27 1.34 1.41 1.54 1.61 1.74 1.87 1.96 2.07 2.16 2.18 2.21 2.28 2.39 2.46 2.57 2.56 2.63 2.67 2.64 2.55 2.51 2.46 2.37 2.23 2.16 1.96 1.83 1.95 2.13 2.21 2.22 2.09 2.03 1.90 1.80 1.73 1.68 1.68 1.71
1.13 1.15 1.22 1.25 1.27 1.36 1.55 1.62 1.70 1.84 2.01 2.14 2.17 2.14 2.09 2.14 2.19 2.26 2.28 2.31 2.20 2.19 2.13 2.11 2.11 2.03 1.93 1.83 1.70 1.67 1.67 1.76 1.94 1.94 1.99 2.12 2.11 2.05 1.96 1.86 1.77 1.74 1.71